Regional Weather Roundup
Issued by NWS

Home | Current Version | Previous Version | Text Only | Print | Product List | Glossary Off
Versions: 1 2 3 4 5 6 7 8 9 10 11 12 13 14 15 16 17 18 19 20 21 22 23 24 25 26 27 28 29 30 31 32 33 34 35 36 37 38 39 40 41 42 43 44 45 46 47 48 49 50

240
ASUS45 KBOU 311407
RWRCO

WEATHER ROUNDUP FOR COLORADO
NATIONAL WEATHER SERVICE DENVER/BOULDER CO
800 AM MDT TUE MAY 31 2016

NOTE: "FAIR" INDICATES FEW OR NO CLOUDS BELOW 12000 FEET WITH NO
SIGNIFICANT WEATHER AND/OR OBSTRUCTIONS TO VISIBILITY.

COZ001>005-013-030-031-311500-
...NORTHWEST COLORADO...

CITY           SKY/WX    TMP DP  RH WIND       PRES   REMARKS
CRAIG          FAIR      48  40  73 CALM      30.16S
HAYDEN         FAIR      48  34  57 E3        30.16R
MEEKER         FAIR      47  35  63 VRB3      30.15F
MOUNT WERNER   NOT AVBL
STEAMBOAT SPGS FAIR      45  37  73 CALM      30.17R
WALDEN         NOT AVBL
$$

COZ006>008-011-311500-
...WEST CENTRAL VALLEYS...

CITY           SKY/WX    TMP DP  RH WIND       PRES   REMARKS
GRAND JUNCTION FAIR      59  37  44 S9        30.05S
MONTROSE       FAIR      54  33  45 S8        30.12S
EAGLE          SUNNY     45  34  65 CALM      30.20F
RIFLE          FAIR      50  36  58 CALM      30.12S
DELTA          FAIR      56  35  45 E3        30.10R
NUCLA          FAIR      54  32  43 SE3       30.12R
$$

COZ017>023-064>068-311500-
...SOUTHWEST COLORADO...

CITY           SKY/WX    TMP DP  RH WIND       PRES   REMARKS
DURANGO        FAIR      50  27  40 CALM      30.10R
CORTEZ         FAIR      53  32  44 SE6       30.07R
PAGOSA SPRINGS FAIR      54  26  34 CALM      30.16S
TELLURIDE      FAIR      46  26  45 CALM      30.25S
WOLF CREEK PAS FAIR      39  21  48 NE6       30.40R
$$

COZ009-010-012-014-032>034-037-058>063-311500-
...CENTRAL COLORADO...

CITY           SKY/WX    TMP DP  RH WIND       PRES   REMARKS
ASPEN          FAIR      47  32  56 CALM      30.18S
BUENA VISTA    FAIR      47  28  47 CALM      30.22S
COPPER MTN     NOT AVBL
BERTHOUD PASS  FAIR      32  23  69 SW7       30.38S WCI  26
COTTONWOOD PAS FAIR      46  28  49 E5        30.29S
GUNNISON       FAIR      39  30  70 CALM      30.26F
KREMMLING      FOG       36  34  93 CALM      30.22S VSB 1/4
LEADVILLE      FAIR      38  27  64 CALM      30.27S
MONARCH PASS   FAIR      41  23  48 SE6       30.48S
SALIDA         FAIR      46  33  59 CALM      30.29S
SUNLIGHT       FAIR      45  27  49 CALM      30.34S
WILKERSON PASS FAIR      36  30  80 S3        30.37S
$$

COZ069>075-311500-
...SAN LUIS VALLEY/SANGRE DE CRISTO MOUNTAINS...

CITY           SKY/WX    TMP DP  RH WIND       PRES   REMARKS
ALAMOSA        FAIR      50  33  52 N6        30.17R
LA VETA PASS   SNOW      36  34  93 NE15      30.30S VSB<1/4
SAGUACHE       FAIR      50  32  50 NW12      30.19S
$$

COZ035-036-038>040-311500-
...NORTHERN COLORADO FRONT RANGE...

CITY           SKY/WX    TMP DP  RH WIND       PRES   REMARKS
DENVER INTL AP CLOUDY    48  40  73 CALM      30.18S
DMNS CITY PARK   N/A     50  40  67 E8        30.18S
AURORA         CLOUDY    47  42  82 NE2       30.19F
FRONT RANGE AP NOT AVBL
ERIE MUNI ARPT CLOUDY    49  40  70 E7        30.18S
BOULDER MUN AP CLOUDY    50  39  66 E3        30.18S
CENTENNIAL     CLOUDY    48  42  80 E3        30.19S
BROOMFIELD     PTSUNNY   48  39  71 E6        30.20R
FORT COLLINS   PTSUNNY   52  36  54 E9        30.18S
LONGMONT       CLOUDY    54  39  58 E7        30.20R
$$

COZ041-046-047-076>085-087-088-311500-
...PIKES PEAK/PALMER DIVIDE AND SOUTHERN FOOTHILLS...

CITY           SKY/WX    TMP DP  RH WIND       PRES   REMARKS
COLO. SPRINGS  FAIR      53  43  68 N12       30.19S
A. F. ACADEMY  FAIR      50  43  76 N9        30.19F
SCHRIEVER AFB  NOT AVBL
ELLICOTT       NOT AVBL
FALCON         FAIR      48  43  85 N12       30.21F
FORT CARSON    FAIR      54  43  67 N13       30.16S
LIMON          CLOUDY    48  46  93 N14       30.17S
MONUMENT HILL  CLOUDY    43  41  93 NE3       30.23F
TRINIDAD       FAIR      55  42  61 NW12G22   30.15R
$$

COZ042>045-048>051-090-091-311500-
...NORTHEAST COLORADO...

CITY           SKY/WX    TMP DP  RH WIND       PRES   REMARKS
GREELEY ARPT   CLOUDY    54  37  54 CALM      30.18S
AKRON          CLOUDY    51  47  86 NW7       30.16S
BURLINGTON     FAIR      56  46  69 N17       30.12F
WRAY           FAIR      55  46  71 N9        30.14R
STERLING       CLOUDY    52  45  76 W6        30.13F
HOLYOKE        FAIR      55  46  71 NW7       30.14R
FORT MORGAN    CLOUDY    51  39  63 CALM      30.17S
$$

COZ086-089-092>099-311500-
...SOUTHEAST COLORADO...

CITY           SKY/WX    TMP DP  RH WIND       PRES   REMARKS
PUEBLO         FAIR      60  46  59 N23G36    30.12R
LA JUNTA       PTSUNNY   60  48  64 NE16      30.10R
LAMAR          FAIR      61  50  67 NE12      30.06S
SPRINGFIELD      N/A     57  54  89 N6        30.06F
$$




USA.gov is the U.S. government's official web portal to all federal, state and local government web resources and services.